TimeCDT,TemperatureF,Dew PointF,Humidity,Sea Level PressureIn,VisibilityMPH,Wind Direction,Wind SpeedMPH,Gust SpeedMPH,PrecipitationIn,Events,Conditions,WindDirDegrees,DateUTC
12:14 AM,75.2,69.8,83,30.02,10.0,ENE,6.9,-,N/A,,Clear,70,2013-09-08 05:14:00
12:34 AM,73.4,68.0,83,30.01,10.0,ENE,5.8,-,N/A,,Clear,70,2013-09-08 05:34:00
12:54 AM,73.4,68.0,83,30.00,10.0,East,9.2,-,N/A,,Clear,90,2013-09-08 05:54:00
1:14 AM,73.4,66.2,78,30.01,10.0,ENE,5.8,-,N/A,,Clear,60,2013-09-08 06:14:00
1:34 AM,71.6,68.0,88,30.03,10.0,East,3.5,-,N/A,,Clear,80,2013-09-08 06:34:00
1:55 AM,71.6,69.8,94,30.03,10.0,East,5.8,-,N/A,,Scattered Clouds,90,2013-09-08 06:55:00
2:15 AM,73.4,69.8,88,30.03,10.0,East,8.1,-,N/A,,Mostly Cloudy,100,2013-09-08 07:15:00
2:34 AM,73.4,68.0,83,30.01,10.0,East,13.8,17.3,N/A,,Scattered Clouds,100,2013-09-08 07:34:00
2:55 AM,73.4,66.2,78,30.01,10.0,East,12.7,-,N/A,,Clear,100,2013-09-08 07:55:00
3:14 AM,71.6,62.6,73,30.03,10.0,East,11.5,-,N/A,,Mostly Cloudy,100,2013-09-08 08:14:00
3:35 AM,71.6,60.8,69,30.03,10.0,ESE,8.1,-,N/A,,Mostly Cloudy,110,2013-09-08 08:35:00
3:55 AM,69.8,60.8,73,30.03,10.0,East,3.5,-,N/A,,Scattered Clouds,90,2013-09-08 08:55:00
4:14 AM,69.8,62.6,78,30.04,10.0,Calm,Calm,-,N/A,,Clear,0,2013-09-08 09:14:00
4:34 AM,68.0,62.6,83,30.04,10.0,Calm,Calm,-,N/A,,Clear,0,2013-09-08 09:34:00
4:55 AM,69.8,62.6,78,30.05,10.0,Calm,Calm,-,N/A,,Scattered Clouds,0,2013-09-08 09:55:00
5:14 AM,68.0,62.6,83,30.05,10.0,Calm,Calm,-,N/A,,Overcast,0,2013-09-08 10:14:00
5:34 AM,69.8,60.8,73,30.04,10.0,SE,6.9,-,N/A,,Mostly Cloudy,130,2013-09-08 10:34:00
5:54 AM,68.0,59.0,73,30.03,10.0,SE,5.8,-,N/A,Thunderstorm,Mostly Cloudy,130,2013-09-08 10:54:00
6:15 AM,68.0,60.8,78,30.04,10.0,East,4.6,-,N/A,,Scattered Clouds,100,2013-09-08 11:15:00
6:34 AM,68.0,60.8,78,30.03,10.0,SE,6.9,-,N/A,,Scattered Clouds,130,2013-09-08 11:34:00
6:54 AM,66.2,60.8,83,30.05,10.0,Calm,Calm,-,N/A,,Scattered Clouds,0,2013-09-08 11:54:00
7:14 AM,66.2,60.8,83,30.05,10.0,Calm,Calm,-,N/A,Rain,Light Rain,0,2013-09-08 12:14:00
7:34 AM,66.2,60.8,83,30.05,10.0,NE,4.6,-,N/A,,Mostly Cloudy,50,2013-09-08 12:34:00
7:54 AM,66.2,60.8,83,30.04,10.0,ENE,5.8,-,N/A,,Overcast,60,2013-09-08 12:54:00
8:14 AM,66.2,60.8,83,30.03,10.0,ENE,9.2,-,N/A,,Overcast,70,2013-09-08 13:14:00
8:34 AM,68.0,60.8,78,30.02,10.0,ENE,11.5,-,N/A,,Overcast,70,2013-09-08 13:34:00
8:55 AM,68.0,60.8,78,30.03,10.0,East,9.2,-,N/A,Rain,Light Rain,80,2013-09-08 13:55:00
9:14 AM,68.0,60.8,78,30.05,10.0,East,5.8,-,N/A,,Overcast,80,2013-09-08 14:14:00
9:34 AM,68.0,60.8,78,30.05,10.0,East,4.6,9.2,N/A,,Overcast,90,2013-09-08 14:34:00
9:54 AM,66.2,60.8,83,30.05,10.0,East,10.4,-,N/A,Rain,Light Rain,90,2013-09-08 14:54:00
10:14 AM,66.2,60.8,83,30.05,10.0,East,9.2,-,N/A,Rain,Light Rain,90,2013-09-08 15:14:00
10:34 AM,66.2,60.8,83,30.05,10.0,ESE,6.9,-,N/A,Rain,Rain,110,2013-09-08 15:34:00
10:54 AM,66.2,62.6,88,30.04,10.0,East,6.9,-,N/A,Rain,Rain,90,2013-09-08 15:54:00
11:14 AM,66.2,62.6,88,30.05,10.0,East,3.5,-,0.01,,Drizzle,80,2013-09-08 16:14:00
11:35 AM,64.4,62.6,94,30.05,10.0,NE,6.9,-,0.05,Rain,Rain,50,2013-09-08 16:35:00
11:54 AM,64.4,62.6,94,30.03,10.0,East,6.9,-,0.07,Rain,Light Rain,80,2013-09-08 16:54:00
12:14 PM,64.4,62.6,94,30.02,10.0,ESE,9.2,-,N/A,,Clear,110,2013-09-08 17:14:00
12:35 PM,66.2,62.6,88,30.00,10.0,ESE,13.8,-,N/A,,Scattered Clouds,120,2013-09-08 17:35:00
12:54 PM,66.2,62.6,88,30.00,10.0,ESE,9.2,-,N/A,,Scattered Clouds,110,2013-09-08 17:54:00
1:14 PM,68.0,64.4,88,29.97,10.0,ESE,12.7,-,N/A,,Clear,120,2013-09-08 18:14:00
1:35 PM,69.8,64.4,83,29.96,10.0,SE,13.8,-,N/A,,Clear,140,2013-09-08 18:35:00
1:54 PM,69.8,64.4,83,29.96,10.0,SE,9.2,18.4,N/A,,Clear,130,2013-09-08 18:54:00
2:14 PM,71.6,66.2,83,29.95,10.0,ESE,10.4,-,N/A,,Clear,120,2013-09-08 19:14:00
2:34 PM,71.6,66.2,83,29.96,10.0,SE,11.5,16.1,N/A,,Scattered Clouds,140,2013-09-08 19:34:00
2:54 PM,71.6,66.2,83,29.95,10.0,SE,10.4,-,N/A,,Mostly Cloudy,140,2013-09-08 19:54:00
3:15 PM,71.6,66.2,83,29.95,10.0,SE,10.4,-,N/A,,Overcast,140,2013-09-08 20:15:00
3:35 PM,71.6,66.2,83,29.96,10.0,ESE,9.2,-,N/A,,Overcast,120,2013-09-08 20:35:00
3:55 PM,71.6,66.2,83,29.95,10.0,ESE,8.1,-,N/A,,Overcast,120,2013-09-08 20:55:00
4:14 PM,71.6,66.2,83,29.94,10.0,ESE,9.2,-,N/A,,Overcast,120,2013-09-08 21:14:00
4:34 PM,71.6,66.2,83,29.93,10.0,ESE,8.1,-,N/A,,Overcast,110,2013-09-08 21:34:00
4:54 PM,71.6,66.2,83,29.93,10.0,ESE,9.2,-,N/A,,Overcast,120,2013-09-08 21:54:00
5:15 PM,71.6,66.2,83,29.93,10.0,ESE,6.9,-,N/A,,Overcast,110,2013-09-08 22:15:00
5:34 PM,71.6,66.2,83,29.92,10.0,ESE,5.8,-,N/A,,Overcast,110,2013-09-08 22:34:00
5:54 PM,71.6,66.2,83,29.92,10.0,ESE,4.6,-,N/A,,Overcast,120,2013-09-08 22:54:00
6:15 PM,71.6,66.2,83,29.91,10.0,ESE,8.1,-,N/A,,Overcast,120,2013-09-08 23:15:00
6:34 PM,71.6,66.2,83,29.91,7.0,East,5.8,-,N/A,,Overcast,100,2013-09-08 23:34:00
6:55 PM,71.6,66.2,83,29.90,10.0,East,5.8,-,N/A,,Overcast,100,2013-09-08 23:55:00
7:14 PM,71.6,66.2,83,29.90,10.0,East,6.9,-,N/A,,Overcast,100,2013-09-09 00:14:00
7:34 PM,69.8,66.2,88,29.89,10.0,ESE,5.8,-,N/A,,Overcast,110,2013-09-09 00:34:00
7:54 PM,69.8,66.2,88,29.89,7.0,ESE,6.9,-,N/A,,Overcast,120,2013-09-09 00:54:00
8:14 PM,69.8,66.2,88,29.89,7.0,SE,8.1,-,N/A,,Overcast,130,2013-09-09 01:14:00
8:34 PM,69.8,66.2,88,29.89,7.0,ESE,5.8,-,N/A,,Overcast,110,2013-09-09 01:34:00
8:54 PM,69.8,68.0,94,29.89,7.0,ESE,6.9,-,N/A,,Overcast,110,2013-09-09 01:54:00
9:14 PM,69.8,66.2,88,29.89,7.0,East,5.8,-,N/A,,Overcast,90,2013-09-09 02:14:00
9:34 PM,69.8,66.2,88,29.89,7.0,East,5.8,-,N/A,,Overcast,90,2013-09-09 02:34:00
9:55 PM,69.8,66.2,88,29.88,10.0,ESE,6.9,-,N/A,,Overcast,110,2013-09-09 02:55:00
10:15 PM,69.8,66.2,88,29.87,7.0,ESE,6.9,-,N/A,,Overcast,120,2013-09-09 03:15:00
10:35 PM,69.8,66.2,88,29.87,7.0,ESE,6.9,-,N/A,,Overcast,110,2013-09-09 03:35:00
10:54 PM,69.8,66.2,88,29.87,7.0,ESE,6.9,-,N/A,,Overcast,110,2013-09-09 03:54:00
11:15 PM,68.0,66.2,94,29.86,5.0,ESE,8.1,-,N/A,,Scattered Clouds,110,2013-09-09 04:15:00
11:35 PM,68.0,66.2,94,29.86,5.0,ESE,5.8,-,N/A,,Clear,110,2013-09-09 04:35:00
11:55 PM,68.0,66.2,94,29.85,4.0,ESE,4.6,-,N/A,,Clear,120,2013-09-09 04:55:00